CSJ726 KCAK-CYHM

Flight info

Callsign CSJ726
Flight time 0h 58m
Altitude 7000
Route BEWEL
Aircraft C208/L-SDFGR/C

Departure

Time 2026-04-21 00:16
Airport Akron Canton Regional Airport (KCAK)

Arrival

Time 2026-04-21 01:15
Airport John C. Munro Hamilton International Airport (CYHM)
Time Latitude Longitude Altitude Speed Heading
2026-04-21 00:06 40.92610 -81.44899 1223 ft 0 kts 272°
2026-04-21 00:09 40.92610 -81.44898 1223 ft 0 kts 272°
2026-04-21 00:10 40.92610 -81.44900 1223 ft 1 kts 274°
2026-04-21 00:10 40.92605 -81.44886 1223 ft 8 kts 145°
2026-04-21 00:11 40.92533 -81.44856 1223 ft 9 kts 182°
2026-04-21 00:11 40.92514 -81.44858 1223 ft 0 kts 186°
2026-04-21 00:12 40.92513 -81.44858 1223 ft 1 kts 186°
2026-04-21 00:12 40.92448 -81.44873 1223 ft 21 kts 196°
2026-04-21 00:12 40.92261 -81.44896 1222 ft 31 kts 182°
2026-04-21 00:13 40.92100 -81.44952 1220 ft 16 kts 192°
2026-04-21 00:13 40.91988 -81.44845 1220 ft 26 kts 138°
2026-04-21 00:13 40.91836 -81.44658 1220 ft 34 kts 137°
2026-04-21 00:13 40.91654 -81.44436 1219 ft 32 kts 136°
2026-04-21 00:14 40.91574 -81.44340 1219 ft 2 kts 139°
2026-04-21 00:14 40.91575 -81.44342 1219 ft 0 kts 140°
2026-04-21 00:14 40.91536 -81.44261 1219 ft 17 kts 92°
2026-04-21 00:15 40.91591 -81.44170 1221 ft 9 kts 52°
2026-04-21 00:15 40.91671 -81.44089 1220 ft 29 kts 11°
2026-04-21 00:15 40.92018 -81.44067 1221 ft 68 kts
2026-04-21 00:15 40.92554 -81.44046 1312 ft 80 kts
2026-04-21 00:16 40.93087 -81.43862 1459 ft 82 kts 27°
2026-04-21 00:16 40.93526 -81.43346 1589 ft 86 kts 47°
2026-04-21 00:16 40.93960 -81.42789 1698 ft 91 kts 36°
2026-04-21 00:16 40.94460 -81.42223 1848 ft 95 kts 37°
2026-04-21 00:17 40.94960 -81.41715 2131 ft 88 kts 30°
2026-04-21 00:17 40.95473 -81.41255 2327 ft 90 kts 31°
2026-04-21 00:17 40.95979 -81.40771 2518 ft 90 kts 33°
2026-04-21 00:17 40.96473 -81.40260 2691 ft 89 kts 34°
2026-04-21 00:18 40.96938 -81.39748 2865 ft 86 kts 36°
2026-04-21 00:18 40.97386 -81.39223 2977 ft 89 kts 37°
2026-04-21 00:18 40.97863 -81.38641 3063 ft 96 kts 40°
2026-04-21 00:18 40.98342 -81.37988 3205 ft 101 kts 43°
2026-04-21 00:19 40.98814 -81.37280 3361 ft 104 kts 46°
2026-04-21 00:19 40.99273 -81.36521 3518 ft 108 kts 49°
2026-04-21 00:19 40.99829 -81.35881 3658 ft 105 kts 13°
2026-04-21 00:19 41.00527 -81.35559 3813 ft 111 kts 18°
2026-04-21 00:20 41.01258 -81.35171 3965 ft 116 kts 18°
2026-04-21 00:20 41.02013 -81.34741 4114 ft 120 kts 20°
2026-04-21 00:20 41.02789 -81.34273 4270 ft 124 kts 20°
2026-04-21 00:20 41.03585 -81.33779 4417 ft 128 kts 20°
2026-04-21 00:21 41.04398 -81.33269 4560 ft 131 kts 20°
2026-04-21 00:21 41.05235 -81.32740 4709 ft 134 kts 20°
2026-04-21 00:21 41.06088 -81.32202 4858 ft 137 kts 20°
2026-04-21 00:21 41.06941 -81.31662 5001 ft 138 kts 19°
2026-04-21 00:22 41.07815 -81.31109 5138 ft 140 kts 19°
2026-04-21 00:22 41.08700 -81.30549 5278 ft 141 kts 19°
2026-04-21 00:22 41.09589 -81.29986 5422 ft 142 kts 19°
2026-04-21 00:22 41.10489 -81.29415 5555 ft 143 kts 19°
2026-04-21 00:23 41.11393 -81.28841 5669 ft 145 kts 19°
2026-04-21 00:23 41.12319 -81.28255 5752 ft 149 kts 19°
2026-04-21 00:23 41.13260 -81.27657 5838 ft 151 kts 19°
2026-04-21 00:23 41.14200 -81.27061 5932 ft 152 kts 20°
2026-04-21 00:24 41.15160 -81.26451 6008 ft 153 kts 19°
2026-04-21 00:24 41.16124 -81.25834 6090 ft 154 kts 21°
2026-04-21 00:24 41.17061 -81.25234 6171 ft 154 kts 18°
2026-04-21 00:24 41.18040 -81.24630 6253 ft 155 kts 19°
2026-04-21 00:25 41.19000 -81.24018 6335 ft 155 kts 19°
2026-04-21 00:25 41.19978 -81.23398 6417 ft 155 kts 20°
2026-04-21 00:25 41.20950 -81.22777 6498 ft 155 kts 19°
2026-04-21 00:25 41.21925 -81.22155 6580 ft 155 kts 19°
2026-04-21 00:26 41.22905 -81.21530 6662 ft 156 kts 19°
2026-04-21 00:26 41.23881 -81.20910 6740 ft 155 kts 19°
2026-04-21 00:26 41.24856 -81.20289 6822 ft 155 kts 19°
2026-04-21 00:26 41.25819 -81.19675 6894 ft 155 kts 19°
2026-04-21 00:27 41.26794 -81.19053 6975 ft 155 kts 19°
2026-04-21 00:27 41.27777 -81.18428 7007 ft 158 kts 19°
2026-04-21 00:27 41.28775 -81.17791 7009 ft 160 kts 19°
2026-04-21 00:27 41.29774 -81.17153 7011 ft 162 kts 19°
2026-04-21 00:28 41.30796 -81.16502 7014 ft 163 kts 20°
2026-04-21 00:28 41.31824 -81.15845 7019 ft 164 kts 19°
2026-04-21 00:28 41.32854 -81.15187 7029 ft 164 kts 20°
2026-04-21 00:28 41.33888 -81.14527 7023 ft 164 kts 20°
2026-04-21 00:29 41.34920 -81.13868 7024 ft 164 kts 20°
2026-04-21 00:29 41.35952 -81.13208 7027 ft 164 kts 20°
2026-04-21 00:29 41.36986 -81.12547 7030 ft 165 kts 20°
2026-04-21 00:29 41.38009 -81.11892 7030 ft 165 kts 20°
2026-04-21 00:30 41.39051 -81.11226 7032 ft 166 kts 20°
2026-04-21 00:30 41.40095 -81.10558 7031 ft 167 kts 20°
2026-04-21 00:30 41.41147 -81.09884 7034 ft 168 kts 20°
2026-04-21 00:30 41.41845 -81.09437 7035 ft 168 kts 20°
2026-04-21 00:31 41.43244 -81.08540 7037 ft 168 kts 20°
2026-04-21 00:31 41.44304 -81.07860 7039 ft 168 kts 20°
2026-04-21 00:31 41.45003 -81.07413 7039 ft 168 kts 20°
2026-04-21 00:31 41.46058 -81.06736 7040 ft 168 kts 20°
2026-04-21 00:32 41.47117 -81.06056 7040 ft 170 kts 20°
2026-04-21 00:32 41.48188 -81.05369 7044 ft 171 kts 20°
2026-04-21 00:32 41.49265 -81.04676 7047 ft 172 kts 20°
2026-04-21 00:32 41.50346 -81.03982 7045 ft 172 kts 20°
2026-04-21 00:33 41.51427 -81.03287 7044 ft 173 kts 20°
2026-04-21 00:33 41.52508 -81.02592 7046 ft 173 kts 20°
2026-04-21 00:33 41.53594 -81.01893 7049 ft 173 kts 20°
2026-04-21 00:33 41.54668 -81.01203 7048 ft 173 kts 20°
2026-04-21 00:34 41.55755 -81.00503 7046 ft 173 kts 20°
2026-04-21 00:34 41.56840 -80.99805 7043 ft 173 kts 20°
2026-04-21 00:34 41.57925 -80.99107 7043 ft 173 kts 20°
2026-04-21 00:34 41.59012 -80.98407 7046 ft 173 kts 20°
2026-04-21 00:35 41.60084 -80.97715 7044 ft 173 kts 20°
2026-04-21 00:35 41.61170 -80.97015 7041 ft 173 kts 20°
2026-04-21 00:35 41.62252 -80.96317 7041 ft 173 kts 20°
2026-04-21 00:35 41.63337 -80.95618 7038 ft 173 kts 20°
2026-04-21 00:36 41.64417 -80.94921 7038 ft 173 kts 20°
2026-04-21 00:36 41.65500 -80.94222 7038 ft 173 kts 20°
2026-04-21 00:36 41.66585 -80.93521 7035 ft 173 kts 20°
2026-04-21 00:36 41.67655 -80.92830 7035 ft 173 kts 20°
2026-04-21 00:37 41.68738 -80.92130 7034 ft 173 kts 20°
2026-04-21 00:37 41.69821 -80.91429 7034 ft 172 kts 20°
2026-04-21 00:37 41.70900 -80.90731 7032 ft 172 kts 20°
2026-04-21 00:37 41.71979 -80.90033 7028 ft 171 kts 20°
2026-04-21 00:38 41.73050 -80.89341 7023 ft 170 kts 21°
2026-04-21 00:38 41.74102 -80.88660 7027 ft 170 kts 20°
2026-04-21 00:38 41.75164 -80.87973 7024 ft 169 kts 20°
2026-04-21 00:38 41.76223 -80.87287 7023 ft 169 kts 21°
2026-04-21 00:39 41.77280 -80.86602 7021 ft 168 kts 20°
2026-04-21 00:39 41.78336 -80.85917 7018 ft 168 kts 20°
2026-04-21 00:39 41.79390 -80.85233 7020 ft 168 kts 21°
2026-04-21 00:39 41.80431 -80.84557 7015 ft 168 kts 21°
2026-04-21 00:40 41.81487 -80.83872 7014 ft 168 kts 21°
2026-04-21 00:40 41.82542 -80.83187 7015 ft 168 kts 21°
2026-04-21 00:40 41.83595 -80.82503 7016 ft 168 kts 21°
2026-04-21 00:40 41.84650 -80.81817 7014 ft 169 kts 21°
2026-04-21 00:41 41.85706 -80.81131 7015 ft 169 kts 21°
2026-04-21 00:41 41.86762 -80.80444 7015 ft 168 kts 21°
2026-04-21 00:41 41.87818 -80.79757 7016 ft 168 kts 21°
2026-04-21 00:41 41.88861 -80.79078 7018 ft 168 kts 21°
2026-04-21 00:42 41.89914 -80.78392 7017 ft 168 kts 21°
2026-04-21 00:42 41.90972 -80.77703 7021 ft 168 kts 21°
2026-04-21 00:42 41.92026 -80.77017 7017 ft 168 kts 21°
2026-04-21 00:42 41.93079 -80.76330 7019 ft 168 kts 21°
2026-04-21 00:43 41.94115 -80.75654 7019 ft 168 kts 21°
2026-04-21 00:43 41.95172 -80.74965 7019 ft 168 kts 21°
2026-04-21 00:43 41.96222 -80.74280 7020 ft 167 kts 21°
2026-04-21 00:43 41.97273 -80.73593 7021 ft 167 kts 21°
2026-04-21 00:44 41.98326 -80.72906 7021 ft 168 kts 21°
2026-04-21 00:44 41.99363 -80.72229 7027 ft 168 kts 21°
2026-04-21 00:44 42.00414 -80.71542 7027 ft 168 kts 21°
2026-04-21 00:45 42.02516 -80.70167 7027 ft 168 kts 21°
2026-04-21 00:45 42.03569 -80.69478 7024 ft 168 kts 21°
2026-04-21 00:45 42.04612 -80.68795 7028 ft 168 kts 21°
2026-04-21 00:45 42.05664 -80.68107 7031 ft 168 kts 21°
2026-04-21 00:46 42.06719 -80.67416 7030 ft 168 kts 21°
2026-04-21 00:46 42.07771 -80.66726 7031 ft 168 kts 21°
2026-04-21 00:46 42.08828 -80.66034 7033 ft 168 kts 21°
2026-04-21 00:46 42.09880 -80.65344 7030 ft 168 kts 21°
2026-04-21 00:47 42.10935 -80.64652 7031 ft 168 kts 21°
2026-04-21 00:47 42.11986 -80.63962 7032 ft 168 kts 21°
2026-04-21 00:47 42.13027 -80.63279 7033 ft 168 kts 21°
2026-04-21 00:47 42.14084 -80.62585 7032 ft 168 kts 21°
2026-04-21 00:48 42.15075 -80.61929 7032 ft 168 kts 21°
2026-04-21 00:48 42.16126 -80.61235 7030 ft 168 kts 21°
2026-04-21 00:48 42.17168 -80.60558 7031 ft 168 kts 21°
2026-04-21 00:48 42.18219 -80.59868 7030 ft 168 kts 21°
2026-04-21 00:49 42.19269 -80.59173 7033 ft 168 kts 21°
2026-04-21 00:49 42.20322 -80.58484 7031 ft 168 kts 20°
2026-04-21 00:49 42.21373 -80.57797 7030 ft 168 kts 21°
2026-04-21 00:49 42.22425 -80.57102 7029 ft 168 kts 21°
2026-04-21 00:50 42.23476 -80.56398 7031 ft 168 kts 21°
2026-04-21 00:50 42.24531 -80.55708 7029 ft 168 kts 21°
2026-04-21 00:50 42.25585 -80.55018 7032 ft 168 kts 21°
2026-04-21 00:50 42.26637 -80.54323 7032 ft 168 kts 21°
2026-04-21 00:51 42.27690 -80.53624 7032 ft 168 kts 21°
2026-04-21 00:51 42.28746 -80.52934 7028 ft 168 kts 21°
2026-04-21 00:51 42.29800 -80.52238 7031 ft 168 kts 21°
2026-04-21 00:51 42.30853 -80.51540 7029 ft 168 kts 21°
2026-04-21 00:52 42.31904 -80.50843 7031 ft 168 kts 21°
2026-04-21 00:52 42.32944 -80.50157 7031 ft 168 kts 21°
2026-04-21 00:52 42.33994 -80.49462 7028 ft 168 kts 21°
2026-04-21 00:52 42.35047 -80.48765 7033 ft 168 kts 21°
2026-04-21 00:53 42.36097 -80.48071 7031 ft 168 kts 21°
2026-04-21 00:53 42.37146 -80.47376 7034 ft 168 kts 21°
2026-04-21 00:53 42.38195 -80.46680 7031 ft 168 kts 21°
2026-04-21 00:53 42.39247 -80.45983 7028 ft 168 kts 21°
2026-04-21 00:54 42.40298 -80.45287 7031 ft 168 kts 21°
2026-04-21 00:54 42.41349 -80.44590 7032 ft 168 kts 21°
2026-04-21 00:54 42.42385 -80.43904 7030 ft 168 kts 21°
2026-04-21 00:54 42.43438 -80.43205 7029 ft 168 kts 21°
2026-04-21 00:55 42.44487 -80.42508 7030 ft 168 kts 21°
2026-04-21 00:55 42.45537 -80.41811 7031 ft 168 kts 21°
2026-04-21 00:55 42.46577 -80.41120 7031 ft 168 kts 21°
2026-04-21 00:55 42.47630 -80.40420 7030 ft 168 kts 21°
2026-04-21 00:56 42.48683 -80.39720 7033 ft 168 kts 21°
2026-04-21 00:56 42.49733 -80.39022 7026 ft 168 kts 21°
2026-04-21 00:56 42.50782 -80.38324 7023 ft 168 kts 21°
2026-04-21 00:56 42.51813 -80.37637 7031 ft 168 kts 21°
2026-04-21 00:57 42.52863 -80.36938 7028 ft 167 kts 21°
2026-04-21 00:57 42.53911 -80.36241 7028 ft 167 kts 21°
2026-04-21 00:57 42.54956 -80.35545 7028 ft 167 kts 21°
2026-04-21 00:57 42.55834 -80.34961 6847 ft 177 kts 21°
2026-04-21 00:58 42.56659 -80.34411 6647 ft 177 kts 21°
2026-04-21 00:58 42.57779 -80.33667 6383 ft 181 kts 21°
2026-04-21 00:58 42.58922 -80.32901 6120 ft 184 kts 22°
2026-04-21 00:58 42.60063 -80.32139 5854 ft 181 kts 22°
2026-04-21 00:59 42.61178 -80.31397 5590 ft 180 kts 22°
2026-04-21 00:59 42.62300 -80.30650 5322 ft 179 kts 22°
2026-04-21 00:59 42.63422 -80.29900 5058 ft 179 kts 22°
2026-04-21 00:59 42.64508 -80.29170 5027 ft 168 kts 22°
2026-04-21 01:00 42.65533 -80.28479 5020 ft 162 kts 22°
2026-04-21 01:00 42.66544 -80.27814 5023 ft 162 kts 22°
2026-04-21 01:00 42.67561 -80.27129 5026 ft 164 kts 21°
2026-04-21 01:00 42.68586 -80.26439 5022 ft 164 kts 22°
2026-04-21 01:01 42.69591 -80.25770 5024 ft 162 kts 22°
2026-04-21 01:01 42.70604 -80.25089 5022 ft 163 kts 22°
2026-04-21 01:01 42.71630 -80.24401 5023 ft 164 kts 22°
2026-04-21 01:01 42.72660 -80.23713 5022 ft 165 kts 22°
2026-04-21 01:02 42.73691 -80.23018 5024 ft 165 kts 22°
2026-04-21 01:02 42.74726 -80.22325 5029 ft 166 kts 22°
2026-04-21 01:02 42.75763 -80.21629 5024 ft 166 kts 22°
2026-04-21 01:02 42.76797 -80.20925 5025 ft 167 kts 22°
2026-04-21 01:03 42.77842 -80.20228 5029 ft 167 kts 23°
2026-04-21 01:03 42.78889 -80.19530 5026 ft 167 kts 22°
2026-04-21 01:03 42.79922 -80.18834 5021 ft 168 kts 23°
2026-04-21 01:03 42.80970 -80.18125 5012 ft 168 kts 22°
2026-04-21 01:04 42.82020 -80.17420 5017 ft 168 kts 23°
2026-04-21 01:04 42.83070 -80.16713 5019 ft 168 kts 23°
2026-04-21 01:04 42.84112 -80.16012 5020 ft 165 kts 23°
2026-04-21 01:04 42.85113 -80.15341 5021 ft 160 kts 22°
2026-04-21 01:05 42.86109 -80.14673 5008 ft 158 kts 23°
2026-04-21 01:05 42.87087 -80.14015 5014 ft 156 kts 22°
2026-04-21 01:05 42.88057 -80.13363 5012 ft 155 kts 23°
2026-04-21 01:05 42.89021 -80.12712 5009 ft 154 kts 23°
2026-04-21 01:06 42.89972 -80.12069 5009 ft 155 kts 23°
2026-04-21 01:06 42.90942 -80.11414 5006 ft 155 kts 23°
2026-04-21 01:06 42.91911 -80.10760 5008 ft 156 kts 23°
2026-04-21 01:06 42.92882 -80.10103 4998 ft 156 kts 23°
2026-04-21 01:07 42.93858 -80.09444 4997 ft 156 kts 23°
2026-04-21 01:07 42.94819 -80.08797 4991 ft 156 kts 23°
2026-04-21 01:07 42.95791 -80.08135 4988 ft 156 kts 23°
2026-04-21 01:07 42.96777 -80.07468 4998 ft 160 kts 23°
2026-04-21 01:08 42.97781 -80.06785 5001 ft 162 kts 23°
2026-04-21 01:08 42.98799 -80.06084 5001 ft 165 kts 27°
2026-04-21 01:08 42.99737 -80.05187 4994 ft 168 kts 38°
2026-04-21 01:08 43.00596 -80.04092 4990 ft 170 kts 41°
2026-04-21 01:09 43.01457 -80.02979 4968 ft 172 kts 41°
2026-04-21 01:09 43.02342 -80.01836 4841 ft 178 kts 40°
2026-04-21 01:09 43.03349 -80.00835 4705 ft 180 kts 30°
2026-04-21 01:09 43.04405 -79.99897 4581 ft 182 kts 33°
2026-04-21 01:10 43.05421 -79.98856 4450 ft 183 kts 35°
2026-04-21 01:10 43.06436 -79.97796 4316 ft 183 kts 35°
2026-04-21 01:10 43.07440 -79.96750 4180 ft 183 kts 35°
2026-04-21 01:10 43.08451 -79.95696 4044 ft 176 kts 35°
2026-04-21 01:11 43.09365 -79.94740 3938 ft 155 kts 36°
2026-04-21 01:11 43.10156 -79.93838 3598 ft 143 kts 36°
2026-04-21 01:11 43.10917 -79.93007 3254 ft 135 kts 34°
2026-04-21 01:11 43.11661 -79.92232 2928 ft 136 kts 32°
2026-04-21 01:12 43.12449 -79.91435 2583 ft 144 kts 34°
2026-04-21 01:12 43.13191 -79.90653 2402 ft 139 kts 31°
2026-04-21 01:12 43.13961 -79.89839 2067 ft 139 kts 36°
2026-04-21 01:12 43.14753 -79.89285 1851 ft 117 kts
2026-04-21 01:13 43.15483 -79.89160 1682 ft 96 kts 359°
2026-04-21 01:13 43.16130 -79.89206 1448 ft 89 kts 342°
2026-04-21 01:13 43.16632 -79.89568 1277 ft 74 kts 319°
2026-04-21 01:13 43.16894 -79.90104 1098 ft 69 kts 284°
2026-04-21 01:14 43.17047 -79.90802 982 ft 85 kts 283°
2026-04-21 01:14 43.17217 -79.91617 896 ft 92 kts 285°
2026-04-21 01:14 43.17414 -79.92454 793 ft 87 kts 284°
2026-04-21 01:14 43.17572 -79.93161 774 ft 68 kts 288°
2026-04-21 01:15 43.17697 -79.93682 772 ft 49 kts 286°
2026-04-21 01:15 43.17786 -79.94102 777 ft 44 kts 287°
2026-04-21 01:15 43.17880 -79.94527 780 ft 49 kts 286°
2026-04-21 01:15 43.17872 -79.94760 778 ft 18 kts 128°